H1 CPF 2 NER 2021 8 30 9 242 01 glonass142 H2 2001801 9142 45358 2021 8 30 0 0 0 2021 9 2 23 45 0 900 1 1 0 0 0 1 H9 10 0 59456 0.00000 0 21399535.170 13735383.455 -2160150.557 10 0 59456 900.00000 0 21547921.972 13635105.004 1057013.735 10 0 59456 1800.00000 0 21344014.634 13332315.472 4253677.643 10 0 59456 2700.00000 0 20767777.785 12879259.959 7367848.732 10 0 59456 3600.00000 0 19811928.244 12332243.070 10339151.329 10 0 59456 4500.00000 0 18482406.408 11749069.174 13109991.959 10 0 59456 5400.00000 0 16798309.534 11186434.350 15626669.686 10 0 59456 6300.00000 0 14791289.084 10697379.859 17840410.360 10 0 59456 7200.00000 0 12504436.751 10328914.121 19708305.279 10 0 59456 8100.00000 0 9990704.827 10119903.021 21194136.836 10 0 59456 9000.00000 0 7310925.615 10099316.938 22269075.919 10 0 59456 9900.00000 0 4531511.154 10284908.070 22912238.165 10 0 59456 10800.00000 0 1721927.445 10682373.644 23111088.837 10 0 59456 11700.00000 0 -1047953.388 11285040.543 22861688.732 10 0 59456 12600.00000 0 -3710514.437 12074085.216 22168776.311 10 0 59456 13500.00000 0 -6202959.746 13019280.631 21045684.075 10 0 59456 14400.00000 0 -8469679.071 14080240.068 19514090.120 10 0 59456 15300.00000 0 -10464314.231 15208106.808 17603608.762 10 0 59456 16200.00000 0 -12151441.786 16347619.959 15351227.050 10 0 59456 17100.00000 0 -13507802.379 17439470.649 12800596.935 10 0 59456 18000.00000 0 -14523025.586 18422850.156 10001195.826 10 0 59456 18900.00000 0 -15199820.162 19238083.053 7007370.968 10 0 59456 19800.00000 0 -15553621.803 19829234.227 3877285.644 10 0 59456 20700.00000 0 -15611713.402 20146579.274 671787.585 10 0 59456 21600.00000 0 -15411855.163 20148833.037 -2546778.205 10 0 59456 22500.00000 0 -15000482.867 19805040.954 -5715788.613 10 0 59456 23400.00000 0 -14430551.044 19096051.945 -8773568.876 10 0 59456 24300.00000 0 -13759113.132 18015509.212 -11660601.566 10 0 59456 25200.00000 0 -13044741.948 16570315.785 -14320693.498 10 0 59456 26100.00000 0 -12344900.632 14780554.007 -16702076.876 10 0 59456 27000.00000 0 -11713376.286 12678861.364 -18758422.475 10 0 59456 27900.00000 0 -11197885.634 10309288.138 -20449744.695 10 0 59456 28800.00000 0 -10837954.564 7725684.340 -21743180.566 10 0 59456 29700.00000 0 -10663161.470 4989683.134 -22613627.661 10 0 59456 30600.00000 0 -10691818.661 2168364.776 -23044228.814 10 0 59456 31500.00000 0 -10930147.335 -668301.529 -23026694.653 10 0 59456 32400.00000 0 -11371980.591 -3450131.539 -22561458.293 10 0 59456 33300.00000 0 -11999006.538 -6109404.709 -21657659.749 10 0 59456 34200.00000 0 -12781540.793 -8583436.773 -20332960.944 10 0 59456 35100.00000 0 -13679795.311 -10816939.974 -18613195.378 10 0 59456 36000.00000 0 -14645589.717 -12764073.770 -16531859.617 10 0 59456 36900.00000 0 -15624432.667 -14390101.832 -14129456.799 10 0 59456 37800.00000 0 -16557885.336 -15672587.766 -11452705.088 10 0 59456 38700.00000 0 -17386107.285 -16602081.324 -8553626.592 10 0 59456 39600.00000 0 -18050477.321 -17182268.079 -5488534.610 10 0 59456 40500.00000 0 -18496178.930 -17429578.083 -2316939.027 10 0 59456 41400.00000 0 -18674641.294 -17372271.607 899608.862 10 0 59456 42300.00000 0 -18545733.126 -17049041.786 4098709.426 10 0 59456 43200.00000 0 -18079616.923 -16507194.240 7218322.554 10 0 59456 44100.00000 0 -17258185.559 -15800481.168 10197966.906 10 0 59456 45000.00000 0 -16076020.669 -14986681.748 12979887.401 10 0 59456 45900.00000 0 -14540832.295 -14125030.946 15510168.673 10 0 59456 46800.00000 0 -12673360.821 -13273604.993 17739773.427 10 0 59456 47700.00000 0 -10506744.637 -12486773.208 19625486.142 10 0 59456 48600.00000 0 -8085379.003 -11812822.943 21130744.589 10 0 59456 49500.00000 0 -5463312.458 -11291856.897 22226343.826 10 0 59456 50400.00000 0 -2702246.296 -10954050.678 22890999.640 10 0 59456 51300.00000 0 130781.279 -10818343.420 23111761.086 10 0 59456 52200.00000 0 2965931.701 -10891616.284 22884264.378 10 0 59456 53100.00000 0 5733219.489 -11168393.514 22212823.168 10 0 59456 54000.00000 0 8365173.951 -11631079.029 21110353.120 10 0 59456 54900.00000 0 10799399.939 -12250719.368 19598131.524 10 0 59456 55800.00000 0 12980932.205 -12988261.827 17705395.694 10 0 59456 56700.00000 0 14864286.214 -13796255.897 15468786.853 10 0 59456 57600.00000 0 16415120.457 -14620927.303 12931649.092 10 0 59456 58500.00000 0 17611441.073 -15404538.031 10143196.013 10 0 59456 59400.00000 0 18444298.474 -16087933.227 7157560.381 10 0 59456 60300.00000 0 18917946.816 -16613167.523 4032744.657 10 0 59456 61200.00000 0 19049459.538 -16926099.435 829492.695 10 0 59456 62100.00000 0 18867817.304 -16978843.404 -2389895.258 10 0 59456 63000.00000 0 18412507.041 -16731974.637 -5562780.729 10 0 59456 63900.00000 0 17731691.623 -16156392.171 -8627413.718 10 0 59456 64800.00000 0 16880028.210 -15234759.893 -11524143.125 10 0 59456 65700.00000 0 15916228.212 -13962463.118 -14196586.325 10 0 59456 66600.00000 0 14900462.942 -12348038.972 -16592734.098 10 0 59456 67500.00000 0 13891725.479 -10413061.215 -18665968.667 10 0 59456 68400.00000 0 12945260.959 -8191483.281 -20375974.511 10 0 59456 69300.00000 0 12110174.424 -5728466.390 -21689523.964 10 0 59456 70200.00000 0 11427317.447 -3078741.265 -22581122.344 10 0 59456 71100.00000 0 10927542.716 -304571.508 -23033500.434 10 0 59456 72000.00000 0 10630399.839 2526596.539 -23037945.095 10 0 59456 72900.00000 0 10543326.829 5344699.794 -22594462.235 10 0 59456 73800.00000 0 10661370.541 8079733.773 -21711769.532 10 0 59456 74700.00000 0 10967447.069 10664426.303 -20407119.599 10 0 59456 75600.00000 0 11433130.205 13036798.997 -18705957.543 10 0 59456 76500.00000 0 12019933.942 15142510.746 -16641419.898 10 0 59456 77400.00000 0 12681034.247 16936886.556 -14253685.000 10 0 59456 78300.00000 0 13363356.867 18386548.477 -11589187.633 10 0 59456 79200.00000 0 14009942.684 19470581.926 -8699713.329 10 0 59456 80100.00000 0 14562490.475 20181190.176 -5641390.110 10 0 59456 81000.00000 0 14963969.579 20523811.203 -2473597.394 10 0 59456 81900.00000 0 15161192.082 20516693.585 742186.686 10 0 59456 82800.00000 0 15107235.965 20189950.632 3943576.983 10 0 59456 83700.00000 0 14763616.950 19584133.798 7068488.903 10 0 59456 84600.00000 0 14102117.437 18748386.296 10056338.521 10 0 59456 85500.00000 0 13106195.376 17738255.262 12849212.038 10 0 59457 0.00000 0 11771913.583 16613254.817 15392982.249 10 0 59457 900.00000 0 10108349.497 15434282.611 17638351.168 10 0 59457 1800.00000 0 8137468.813 14260997.737 19541798.466 10 0 59457 2700.00000 0 5893465.236 13149270.548 21066419.004 10 0 59457 3600.00000 0 3421594.651 12148809.612 22182633.383 10 0 59457 4500.00000 0 776549.703 11301065.587 22868758.534 10 0 59457 5400.00000 0 -1979558.688 10637498.798 23111427.892 10 0 59457 6300.00000 0 -4779530.850 10178282.759 22905853.229 10 0 59457 7200.00000 0 -7553623.718 9931497.716 22255923.073 10 0 59457 8100.00000 0 -10232207.981 9892847.984 21174135.439 10 0 59457 9000.00000 0 -12748428.108 10045915.193 19681365.516 10 0 59457 9900.00000 0 -15040755.768 10362937.296 17806471.878 10 0 59457 10800.00000 0 -17055331.332 10806081.211 15585747.777 10 0 59457 11700.00000 0 -18747996.419 11329156.230 13062226.979 10 0 59457 12600.00000 0 -20085932.862 11879696.574 10284856.604 10 0 59457 13500.00000 0 -21048839.554 12401325.633 7307552.132 10 0 59457 14400.00000 0 -21629597.779 12836302.126 4188152.350 10 0 59457 15300.00000 0 -21834396.785 13128140.250 987294.414 10 0 59457 16200.00000 0 -21682314.261 13224192.298 -2232768.950 10 0 59457 17100.00000 0 -21204369.324 13078083.436 -5409386.602 10 0 59457 18000.00000 0 -20442088.137 12651894.244 -8480735.897 10 0 59457 18900.00000 0 -19445643.108 11917997.217 -11387034.541 10 0 59457 19800.00000 0 -18271644.804 10860467.953 -14071712.800 10 0 59457 20700.00000 0 -16980680.589 9476009.934 -16482522.155 10 0 59457 21600.00000 0 -15634704.635 7774352.464 -18572558.134 10 0 59457 22500.00000 0 -14294390.185 5778103.758 -20301176.863 10 0 59457 23400.00000 0 -13016556.272 3522064.391 -21634787.181 10 0 59457 24300.00000 0 -11851777.655 1052029.091 -22547503.022 10 0 59457 25200.00000 0 -10842278.599 -1576873.564 -23021643.598 10 0 59457 26100.00000 0 -10020198.865 -4302234.549 -23048072.129 10 0 59457 27000.00000 0 -9406304.184 -7056725.581 -22626367.087 10 0 59457 27900.00000 0 -9009194.555 -9770670.053 -21764823.236 10 0 59457 28800.00000 0 -8825042.584 -12374716.902 -20480282.988 10 0 59457 29700.00000 0 -8837871.653 -14802506.638 -18797801.863 10 0 59457 30600.00000 0 -9020360.992 -16993219.137 -16750154.905 10 0 59457 31500.00000 0 -9335142.598 -18893897.785 -14377193.985 10 0 59457 32400.00000 0 -9736534.299 -20461454.082 -11725068.682 10 0 59457 33300.00000 0 -10172635.021 -21664270.187 -8845326.018 10 0 59457 34200.00000 0 -10587693.154 -22483333.635 -5793906.736 10 0 59457 35100.00000 0 -10924647.531 -22912858.135 -2630057.732 10 0 59457 36000.00000 0 -11127733.384 -22960365.809 584818.133 10 0 59457 36900.00000 0 -11145042.998 -22646228.706 3788352.359 10 0 59457 37800.00000 0 -10930932.841 -22002690.037 6918418.113 10 0 59457 38700.00000 0 -10448175.475 -21072407.201 9914331.211 10 0 59457 39600.00000 0 -9669765.386 -19906578.515 12718021.524 10 0 59457 40500.00000 0 -8580302.439 -18562732.751 15275152.511 10 0 59457 41400.00000 0 -7176894.342 -17102274.345 17536167.671 10 0 59457 42300.00000 0 -5469539.619 -15587887.113 19457244.188 10 0 59457 43200.00000 0 -3480974.101 -14080904.814 21001136.078 10 0 59457 44100.00000 0 -1245986.163 -12638758.065 22137891.263 10 0 59457 45000.00000 0 1189772.120 -11312603.697 22845429.290 10 0 59457 45900.00000 0 3771429.977 -10145234.930 23109969.102 10 0 59457 46800.00000 0 6436932.476 -9169359.018 22926298.810 10 0 59457 47700.00000 0 9119381.687 -8406313.816 22297882.246 10 0 59457 48600.00000 0 11749588.927 -7865276.597 21236799.876 10 0 59457 49500.00000 0 14258733.605 -7542998.028 19763524.556 10 0 59457 50400.00000 0 16581019.295 -7424072.573 17906535.559 10 0 59457 51300.00000 0 18656217.484 -7481734.196 15701777.271 10 0 59457 52200.00000 0 20431993.614 -7679144.241 13191971.885 10 0 59457 53100.00000 0 21865918.478 -7971117.658 10425798.395 10 0 59457 54000.00000 0 22927080.874 -8306215.009 7456952.959 10 0 59457 54900.00000 0 23597233.676 -8629111.937 4343108.263 10 0 59457 55800.00000 0 23871424.786 -8883145.708 1144791.973 10 0 59457 56700.00000 0 23758086.088 -9012930.445 -2075793.782 10 0 59457 57600.00000 0 23278576.342 -8966929.416 -5255988.444 10 0 59457 58500.00000 0 22466197.143 -8699874.218 -8333900.044 10 0 59457 59400.00000 0 21364723.559 -8174926.992 -11249618.374 10 0 59457 60300.00000 0 20026511.719 -7365492.607 -13946389.711 10 0 59457 61200.00000 0 18510263.710 -6256602.616 -16371729.157 10 0 59457 62100.00000 0 16878544.632 -4845811.082 -18478448.202 10 0 59457 63000.00000 0 15195157.056 -3143563.078 -20225576.962 10 0 59457 63900.00000 0 13522484.033 -1173019.276 -21579162.821 10 0 59457 64800.00000 0 11918912.720 1030656.996 -22512929.986 10 0 59457 65700.00000 0 10436447.022 3421521.098 -23008787.388 10 0 59457 66600.00000 0 9118609.254 5944526.220 -23057175.475 10 0 59457 67500.00000 0 7998718.309 8537590.607 -22657245.729 10 0 59457 68400.00000 0 7098615.631 11133966.965 -21816870.007 10 0 59457 69300.00000 0 6427891.281 13664815.553 -20552480.089 10 0 59457 70200.00000 0 5983641.153 16061874.059 -18888741.051 10 0 59457 71100.00000 0 5750764.023 18260113.522 -16858065.178 10 0 59457 72000.00000 0 5702784.423 20200270.046 -14499976.201 10 0 59457 72900.00000 0 5803165.274 21831147.421 -11860336.434 10 0 59457 73800.00000 0 6007053.662 23111595.411 -8990451.962 10 0 59457 74700.00000 0 6263385.083 24012081.904 -5946073.491 10 0 59457 75600.00000 0 6517256.469 24515794.274 -2786312.370 10 0 59457 76500.00000 0 6712467.166 24619224.952 427507.046 10 0 59457 77400.00000 0 6794120.081 24332217.724 3633036.243 10 0 59457 78300.00000 0 6711172.874 23677473.907 6768109.508 10 0 59457 79200.00000 0 6418831.263 22689539.960 9771945.661 10 0 59457 80100.00000 0 5880683.348 21413319.702 12586321.355 10 0 59457 81000.00000 0 5070484.778 19902173.974 15156693.539 10 0 59457 81900.00000 0 3973519.273 18215687.498 17433249.885 10 0 59457 82800.00000 0 2587476.855 16417196.347 19371867.335 10 0 59457 83700.00000 0 922812.131 14571179.067 20934960.999 10 0 59457 84600.00000 0 -997433.434 12740619.842 22092207.693 10 0 59457 85500.00000 0 -3138339.103 10984453.087 22821130.756 10 0 59458 0.00000 0 -5454314.316 9355195.202 23107535.373 10 0 59458 900.00000 0 -7890761.700 7896861.603 22945786.244 10 0 59458 1800.00000 0 -10386125.341 6643254.495 22338922.268 10 0 59458 2700.00000 0 -12874241.970 5616693.526 21298605.572 10 0 59458 3600.00000 0 -15286898.130 4827240.210 19844905.369 10 0 59458 4500.00000 0 -17556488.552 4272449.566 18005919.807 10 0 59458 5400.00000 0 -19618666.045 3937658.687 15817242.129 10 0 59458 6300.00000 0 -21414873.128 3796800.284 13321280.282 10 0 59458 7200.00000 0 -22894649.914 3813707.154 10566442.188 10 0 59458 8100.00000 0 -24017621.668 3943852.652 7606201.553 10 0 59458 9000.00000 0 -24755082.422 4136453.677 4498061.757 10 0 59458 9900.00000 0 -25091107.587 4336847.065 1302437.787 10 0 59458 10800.00000 0 -25023148.164 4489038.304 -1918521.929 10 0 59458 11700.00000 0 -24562080.987 4538313.797 -5102150.409 10 0 59458 12600.00000 0 -23731712.358 4433804.933 -8186489.198 10 0 59458 13500.00000 0 -22567755.795 4130893.974 -11111502.848 10 0 59458 14400.00000 0 -21116326.945 3593358.414 -13820256.116 10 0 59458 15300.00000 0 -19432019.331 2795161.518 -16260029.939 10 0 59458 16200.00000 0 -17575642.418 1721811.895 -18383353.665 10 0 59458 17100.00000 0 -15611717.625 371233.261 -20148932.918 10 0 59458 18000.00000 0 -13605838.133 -1245893.378 -21522454.703 10 0 59458 18900.00000 0 -11622003.688 -3106330.598 -22477254.100 10 0 59458 19800.00000 0 -9720042.360 -5175020.881 -22994829.880 10 0 59458 20700.00000 0 -7953227.209 -7406328.079 -23065199.371 10 0 59458 21600.00000 0 -6366187.169 -9745732.606 -22687086.289 10 0 59458 22500.00000 0 -4993198.744 -12131909.834 -21867938.432 10 0 59458 23400.00000 0 -3856928.911 -14499105.172 -20623775.479 10 0 59458 24300.00000 0 -2967680.376 -16779706.981 -18978870.339 10 0 59458 25200.00000 0 -2323169.162 -18906910.301 -16965270.620 10 0 59458 26100.00000 0 -1908842.122 -20817360.531 -14622169.870 10 0 59458 27000.00000 0 -1698719.277 -22453667.158 -11995141.024 10 0 59458 27900.00000 0 -1656723.889 -23766683.131 -9135247.107 10 0 59458 28800.00000 0 -1738442.811 -24717455.152 -6098046.681 10 0 59458 29700.00000 0 -1893241.651 -25278764.101 -2942513.494 10 0 59458 30600.00000 0 -2066644.502 -25436191.920 270108.619 10 0 59458 31500.00000 0 -2202877.050 -25188671.044 3477493.105 10 0 59458 32400.00000 0 -2247465.178 -24548494.224 6617437.330 10 0 59458 33300.00000 0 -2149778.988 -23540785.029 9629065.088 10 0 59458 34200.00000 0 -1865414.699 -22202451.787 12454001.770 10 0 59458 35100.00000 0 -1358313.798 -20580669.186 15037499.776 10 0 59458 36000.00000 0 -602529.966 -18730951.183 17329492.851 10 0 59458 36900.00000 0 416430.897 -16714895.688 19285559.491 10 0 59458 37800.00000 0 1700754.357 -14597694.870 20867777.521 10 0 59458 38700.00000 0 3239981.636 -12445514.273 22045454.063 10 0 59458 39600.00000 0 5011209.394 -10322849.261 22795717.388 10 0 59458 40500.00000 0 6979818.183 -8289967.966 23103959.780 10 0 59458 41400.00000 0 9100700.799 -6400546.167 22964123.106 10 0 59458 42300.00000 0 11319941.003 -4699591.736 22378821.575 10 0 59458 43200.00000 0 13576874.483 -3221744.155 21359298.986 10 0 59458 44100.00000 0 15806447.909 -1990019.332 19925220.627 10 0 59458 45000.00000 0 17941779.209 -1015051.571 18104302.982 10 0 59458 45900.00000 0 19916813.525 -294864.048 15931787.333 10 0 59458 46800.00000 0 21668964.804 184822.828 13449766.295 10 0 59458 47700.00000 0 23141632.941 449758.184 10706375.311 10 0 59458 48600.00000 0 24286491.127 535837.718 7754863.905 10 0 59458 49500.00000 0 25065447.116 487346.941 4652564.084 10 0 59458 50400.00000 0 25452195.395 354845.040 1459775.762 10 0 59458 51300.00000 0 25433294.175 192779.376 -1761409.008 10 0 59458 52200.00000 0 25008721.055 56932.353 -4948319.698 10 0 59458 53100.00000 0 24191883.130 1809.780 -8038934.355 10 0 59458 54000.00000 0 23009080.569 78082.627 -10973095.276 10 0 59458 54900.00000 0 21498445.844 330191.926 -13693688.603 10 0 59458 55800.00000 0 19708403.213 794219.647 -16147763.840 10 0 59458 56700.00000 0 17695713.395 1496117.072 -18287570.720 10 0 59458 57600.00000 0 15523185.913 2450366.860 -20071492.671 10 0 59458 58500.00000 0 13257155.547 3659136.429 -21464858.355 10 0 59458 59400.00000 0 10964829.075 5111959.320 -22440615.518 10 0 59458 60300.00000 0 8711613.583 6785958.785 -22979854.260 10 0 59458 61200.00000 0 6558538.151 8646604.791 -23072169.966 10 0 59458 62100.00000 0 4559876.334 10648973.144 -22715859.395 10 0 59458 63000.00000 0 2761068.041 12739454.390 -21917946.696 10 0 59458 63900.00000 0 1197026.651 14857841.142 -20694039.416 10 0 59458 64800.00000 0 -109099.314 16939706.805 -19068017.816 10 0 59458 65700.00000 0 -1146659.838 18918976.455 -17071563.892 10 0 59458 66600.00000 0 -1917703.462 20730582.580 -14743539.623 10 0 59458 67500.00000 0 -2436637.286 22313094.926 -12129226.758 10 0 59458 68400.00000 0 -2729363.106 23611214.808 -9279443.055 10 0 59458 69300.00000 0 -2831927.731 24578029.854 -6249552.380 10 0 59458 70200.00000 0 -2788745.887 25176935.274 -3098388.023 10 0 59458 71100.00000 0 -2650471.935 25383141.740 112889.776 10 0 59458 72000.00000 0 -2471611.169 25184707.189 3321979.667 10 0 59458 72900.00000 0 -2307972.286 24583049.950 6466645.400 10 0 59458 73800.00000 0 -2214069.055 23592922.151 9485919.044 10 0 59458 74700.00000 0 -2240581.103 22241844.948 12321277.944 10 0 59458 75600.00000 0 -2431981.109 20569029.469 14917773.002 10 0 59458 76500.00000 0 -2824428.504 18623828.608 17225086.886 10 0 59458 77400.00000 0 -3444018.476 16463784.185 19198502.239 10 0 59458 78300.00000 0 -4305460.242 14152350.492 20799761.903 10 0 59458 79200.00000 0 -5411240.570 11756388.412 21997805.261 10 0 59458 80100.00000 0 -6751308.409 9343533.615 22769367.087 10 0 59458 81000.00000 0 -8303294.929 6979547.280 23099427.895 10 0 59458 81900.00000 0 -10033261.163 4725758.361 22981507.354 10 0 59458 82800.00000 0 -11896943.533 2636702.737 22417795.103 10 0 59458 83700.00000 0 -13841446.986 758056.354 21419116.136 10 0 59458 84600.00000 0 -15807316.777 -875052.522 20004730.771 10 0 59458 85500.00000 0 -17730903.905 -2239282.263 18201972.207 10 0 59459 0.00000 0 -19546926.733 -3323816.952 16045727.668 10 0 59459 900.00000 0 -21191122.627 -4130574.900 13577771.702 10 0 59459 1800.00000 0 -22602879.390 -4673878.548 10845964.334 10 0 59459 2700.00000 0 -23727735.595 -4979598.940 7903327.628 10 0 59459 3600.00000 0 -24519645.628 -5083812.066 4807018.783 10 0 59459 4500.00000 0 -24942912.644 -5031023.202 1617219.146 10 0 59459 5400.00000 0 -24973707.678 -4872035.132 -1604039.081 10 0 59459 6300.00000 0 -24601109.752 -4661551.001 -4794085.205 10 0 59459 7200.00000 0 -23827622.106 -4455614.176 -7890837.033 10 0 59459 8100.00000 0 -22669141.888 -4308994.710 -10834017.675 10 0 59459 9000.00000 0 -21154383.814 -4272634.359 -13566337.509 10 0 59459 9900.00000 0 -19323781.619 -4391259.699 -16034617.172 10 0 59459 10800.00000 0 -17227913.285 -4701265.678 -18190828.986 10 0 59459 11700.00000 0 -14925516.182 -5228960.358 -19993035.945 10 0 59459 12600.00000 0 -12481175.619 -5989246.041 -21406209.615 10 0 59459 13500.00000 0 -9962783.842 -6984793.326 -22402911.064 10 0 59459 14400.00000 0 -7438875.913 -8205743.611 -22963821.798 10 0 59459 15300.00000 0 -4975953.879 -9629953.034 -23078114.737 10 0 59459 16200.00000 0 -2635910.656 -11223767.985 -22743658.638 10 0 59459 17100.00000 0 -473660.541 -12943299.889 -21967052.496 10 0 59459 18000.00000 0 1464925.633 -14736145.890 -20763489.864 10 0 59459 18900.00000 0 3144695.817 -16543483.458 -19156456.201 10 0 59459 19800.00000 0 4542434.142 -18302451.245 -17177265.541 10 0 59459 20700.00000 0 5647571.251 -19948716.523 -14864445.822 10 0 59459 21600.00000 0 6462359.773 -21419121.745 -12262985.060 10 0 59459 22500.00000 0 7001509.624 -22654299.565 -9423453.190 10 0 59459 23400.00000 0 7291300.283 -23601146.818 -6401016.852 10 0 59459 24300.00000 0 7368209.230 -24215054.070 -3254366.399 10 0 59459 25200.00000 0 7277115.809 -24461797.515 -44576.096 10 0 59459 26100.00000 0 7069157.491 -24319014.188 3166080.195 10 0 59459 27000.00000 0 6799329.931 -23777199.000 6315334.777 10 0 59459 27900.00000 0 6523932.764 -22840182.048 9342130.026 10 0 59459 28800.00000 0 6297969.275 -21525066.456 12187797.146 10 0 59459 29700.00000 0 6172609.814 -19861629.397 14797187.287 10 0 59459 30600.00000 0 6192825.921 -17891211.238 17119733.609 10 0 59459 31500.00000 0 6395294.770 -15665138.913 19110424.257 10 0 59459 32400.00000 0 6806662.121 -13242748.713 20730668.201 10 0 59459 33300.00000 0 7442236.994 -10689090.062 21949037.934 10 0 59459 34200.00000 0 8305173.215 -8072404.890 22741875.292 10 0 59459 35100.00000 0 9386172.887 -5461486.210 23093749.281 10 0 59459 36000.00000 0 10663725.179 -2923024.401 22997757.354 10 0 59459 36900.00000 0 12104871.711 -519050.239 22455664.301 10 0 59459 37800.00000 0 13666467.982 1695420.293 21477875.793 10 0 59459 38700.00000 0 15296889.648 3674442.601 20083246.454 10 0 59459 39600.00000 0 16938113.802 5382816.666 18298725.278 10 0 59459 40500.00000 0 18528089.484 6797307.802 16158844.236 10 0 59459 41400.00000 0 20003299.264 7907364.526 13705058.748 10 0 59459 42300.00000 0 21301405.115 8715303.750 10984951.849 10 0 59459 43200.00000 0 22363867.807 9235955.834 8051316.482 10 0 59459 44100.00000 0 23138429.533 9495784.627 4961133.151 10 0 59459 45000.00000 0 23581354.693 9531519.815 1774462.541 10 0 59459 45900.00000 0 23659333.534 9388359.706 -1446725.285 10 0 59459 46800.00000 0 23350967.273 9117821.000 -4639761.895 10 0 59459 47700.00000 0 22647770.842 8775327.294 -7742507.344 10 0 59459 48600.00000 0 21554649.766 8417639.382 -10694568.052 10 0 59459 49500.00000 0 20089830.007 8100237.347 -13438481.037 10 0 59459 50400.00000 0 18284242.897 7874766.457 -15920840.358 10 0 59459 51300.00000 0 16180390.433 7786656.219 -18093343.052 10 0 59459 52200.00000 0 13830738.256 7873014.397 -19913733.635 10 0 59459 53100.00000 0 11295703.640 8160885.954 -21346628.364 10 0 59459 54000.00000 0 8641322.728 8665951.194 -22364203.248 10 0 59459 54900.00000 0 5936694.608 9391718.549 -22946732.611 10 0 59459 55800.00000 0 3251308.981 10329246.346 -23082968.111 10 0 59459 56700.00000 0 652368.715 11457405.442 -22770351.407 10 0 59459 57600.00000 0 -1797781.579 12743671.714 -22015056.901 10 0 59459 58500.00000 0 -4044014.447 14145415.060 -20831864.299 10 0 59459 59400.00000 0 -6040468.713 15611630.663 -19243863.980 10 0 59459 60300.00000 0 -7752204.792 17085039.786 -17282001.277 10 0 59459 61200.00000 0 -9156398.619 18504471.771 -14984468.910 10 0 59459 62100.00000 0 -10243026.200 19807427.244 -12395959.590 10 0 59459 63000.00000 0 -11015012.073 20932714.904 -9566793.493 10 0 59459 63900.00000 0 -11487837.367 21823051.196 -6551937.792 10 0 59459 64800.00000 0 -11688625.858 22427513.802 -3409937.428 10 0 59459 65700.00000 0 -11654748.123 22703746.000 -201777.991 10 0 59459 66600.00000 0 -11432004.046 22619819.476 3010296.978 10 0 59459 67500.00000 0 -11072461.416 22155677.511 6163991.286 10 0 59459 68400.00000 0 -10632042.603 21304098.099 9198160.629 10 0 59459 69300.00000 0 -10167961.607 20071136.644 12053993.089 10 0 59459 70200.00000 0 -9736119.780 18476029.625 14676143.051 10 0 59459 71100.00000 0 -9388569.994 16550562.969 17013797.052 10 0 59459 72000.00000 0 -9171155.894 14337931.124 19021651.484 10 0 59459 72900.00000 0 -9121425.405 11891133.717 20660783.976 10 0 59459 73800.00000 0 -9266906.051 9270975.666 21899402.385 10 0 59459 74700.00000 0 -9623814.542 6543752.892 22713457.529 10 0 59459 75600.00000 0 -10196255.023 3778718.518 23087108.425 10 0 59459 76500.00000 0 -10975940.161 1045433.380 23013031.354 10 0 59459 77400.00000 0 -11942447.561 -1588890.469 22492566.781 10 0 59459 78300.00000 0 -13064001.890 -4061944.328 21535701.018 10 0 59459 79200.00000 0 -14298751.232 -6318670.597 20160882.363 10 0 59459 80100.00000 0 -15596485.541 -8313307.005 18394674.401 10 0 59459 81000.00000 0 -16900726.425 -10011043.014 16271252.128 10 0 59459 81900.00000 0 -18151101.749 -11389219.901 13831749.464 10 0 59459 82800.00000 0 -19285906.050 -12438024.647 11123469.805 10 0 59459 83700.00000 0 -20244739.574 -13160648.849 8198973.935 10 0 59459 84600.00000 0 -20971114.793 -13572906.181 5115062.384 10 0 59459 85500.00000 0 -21414920.101 -13702324.627 1931671.737 99